Location: Bogis-Bossey
(46.3500°N, 6.1667°E)
Time: 17:37:19
(UTC+00:00)

Meteor 1-10 Rocket - Pass Details

Date: 17 August 2022
Orbit: 835 x 910 km, 81.3° (Epoch: 30 September)

Event Time Altitude Azimuth Distance (km) Brightness Sun altitude
Rises 19:16:48 0° 352° (N) 3,410 7.9 -6.4°
Reaches altitude 10° 19:19:17 10° 357° (N) 2,465 7.1 -6.8°
Maximum altitude 19:24:45 55° 75° (ENE) 1,004 4.4 -7.6°
Drops below altitude 10° 19:30:10 10° 153° (SSE) 2,444 6.1 -8.4°
Enters shadow 19:31:35 - 156° (SSE) 2,982 6.6 -8.7°
